Location: Ernsee
(50.8780°N, 12.0389°E)
Time: 12:47:33
(UTC+00:00)

YAOGAN 6 - Pass Details

Date: 20 January 2020
Orbit: 465 x 506 km, 97.0° (Epoch: 17 February)

Event Time Altitude Azimuth Distance (km) Brightness Sun altitude
Rises 06:06:00 0° 14° (NNE) 2,565 6.2 -9.0°
Reaches altitude 10° 06:08:06 10° 16° (NNE) 1,672 5.2 -8.7°
Maximum altitude 06:11:42 75° 102° (ESE) 500 2.8 -8.2°
Drops below altitude 10° 06:15:12 10° 188° (S) 1,636 5.4 -7.7°
Sets 06:17:14 0° 190° (S) 2,503 6.4 -7.4°
